Location: Clatteringshaws Loch
(55.0508°N, 4.2860°W)
Time: 18:03:44
(UTC+00:00)

Daily predictions for brighter satellites

Satellite Brightness Start Highest point End
(mag) Time Altitude Azimuth Time Altitude Azimuth Time Altitude Azimuth
Cosmos 2344 4.1 16:53:46 10° WSW 17:01:37 65° NNW 17:11:30 10° ENE
Meteor 1-24 Rocket 4.0 17:02:20 10° S 17:07:53 52° E 17:13:38 10° NNE
Meteor 2-5 Rocket 3.9 17:02:06 10° S 17:07:55 73° E 17:13:52 10° NNE
Cosmos 2369 Rocket 2.2 17:02:18 10° NNW 17:07:59 75° NE 17:13:40 10° SE
IRAS Rocket 4.3 17:02:42 10° SE 17:08:08 61° ENE 17:13:40 10° NNW
Cosmos 1707 3.2 17:04:38 10° SSW 17:08:31 66° WNW 17:12:27 10° N
SMAP 3.1 17:05:37 10° SSE 17:10:13 63° ENE 17:14:50 10° N
Ariane Rocket 3.0 17:05:21 10° SSE 17:10:21 62° ENE 17:15:23 10° NNW
Cosmos 2184 Rocket 4.2 17:04:09 10° NNW 17:10:35 85° W 17:16:59 10° S
SPOT 3 Rocket 4.4 17:07:52 10° ESE 17:12:13 28° NE 17:16:36 10° N
CZ-2C R/B 3.3 17:08:09 10° S 17:12:46 52° W 17:17:18 10° NNW
SJ-7 4.4 17:08:51 10° SSE 17:12:57 73° ENE 17:17:09 10° NNW
Cosmos 1953 Rocket 3.6 17:08:48 10° SSW 17:13:13 87° WNW 17:17:37 10° NNE
Fregat R/B Cluster 11 4.0 17:10:39 10° SSW 17:13:35 60° SE 17:18:10 10° NE
In-Cosmos 22 4.3 17:09:09 10° S 17:14:16 52° E 17:19:30 10° NNE
IDEFIX/ARIANE 42P 4.2 17:13:02 10° SSW 17:17:56 39° W 17:22:52 10° NNW
Cosmos 2219 Rocket 3.3 17:14:58 10° WSW 17:20:14 38° NW 17:25:32 10° NNE
SL-16 R/B 4.0 17:17:09 10° NW 17:20:54 18° NNW 17:24:40 10° NNE
Cosmos 1503 Rocket 4.1 17:15:44 10° NNW 17:21:04 90° WSW 17:26:26 10° SSE
Cosmos-2242 3.9 17:17:21 10° NNW 17:21:31 53° W 17:25:40 10° S
SL-8 Rocket 4.4 17:16:39 10° N 17:22:26 40° ENE 17:28:14 10° SE
CORIOLIS 4.1 17:17:13 10° SSE 17:22:33 72° ENE 17:27:54 10° NNW
Cosmos 1656 Rocket 4.1 17:20:13 10° NNW 17:25:21 40° NE 17:30:31 10° ESE
Cosmos 1674 3.4 17:22:08 10° SSE 17:25:28 31° E 17:28:50 10° NNE
Cosmos 1331 Rocket 4.0 17:22:23 10° SSW 17:27:34 89° WNW 17:32:48 10° NNE
Cosmos 1943 Rocket 2.1 17:22:20 10° NNW 17:28:00 73° NE 17:33:35 10° SE
Cosmos 1302 Rocket 4.1 17:22:58 10° S 17:28:11 60° ESE 17:33:25 10° NNE
ATLAS 2AS CENTAUR R/B 3.4 17:20:08 10° NW 17:28:12 72° SW 17:35:44 10° SE
CSL-04 Rocket 3.8 17:22:47 10° SSE 17:28:21 86° WSW 17:33:54 10° NNW
CZ-4 R/B 1.5 17:24:24 10° SSE 17:28:35 65° ENE 17:32:49 10° N
GEOS 3 Rocket 3.8 17:25:28 10° ESE 17:30:44 60° NNE 17:36:05 10° NW
Cosmos 2360 Rocket 4.0 17:30:22 10° WNW 17:34:32 20° NNW 17:38:44 10° NNE
Cosmos 2333 Rocket 3.4 17:32:25 10° WSW 17:37:44 36° NW 17:43:03 10° NNE
Cosmos 1980 Rocket 4.0 17:35:15 10° NNW 17:38:48 16° N 17:42:13 10° NE
RESURS DK-1 4.3 17:37:16 10° NNW 17:39:26 14° NNE 17:41:01 12° NE
YAOGAN 1 2.6 17:35:52 10° SSE 17:40:09 62° ENE 17:44:27 10° N
Cosmos 1300 3.2 17:38:33 10° N 17:42:10 37° ENE 17:45:44 10° SE
COSMOS 2428 4.3 17:38:36 10° W 17:43:22 26° NNW 17:48:10 10° NNE
Geosat 4.3 17:40:40 10° NE 17:45:34 49° ESE 17:50:26 10° SSW
Cosmos 1295 Rocket 4.4 17:39:54 10° N 17:46:02 72° ENE 17:52:08 10° SSE
IRS-1A Rocket 4.2 17:41:47 10° SSE 17:47:21 80° ENE 17:53:02 10° NNW
SL-16 R/B 4.4 17:42:46 10° N 17:47:25 23° NW 17:52:03 10° W
NOAA 12 4.2 17:42:39 10° SE 17:47:41 50° ENE 17:52:46 10° N
Cosmos 1484 Rocket 3.6 17:44:10 10° S 17:47:53 52° W 17:51:35 10° NNW
NOSS 3-4 (A) 3.7 17:44:05 10° NW 17:50:52 75° NE 17:58:12 10° ESE
NOSS 3-4 (C) 3.7 17:44:11 10° NW 17:50:58 74° NE 17:58:18 10° ESE
Cosmos 968 Rocket 3.4 17:48:33 10° NNW 17:53:47 82° ENE 17:58:56 10° SSE
ALOS 2.3 17:49:20 10° SE 17:53:54 57° ENE 17:58:29 10° N
Meteor 2-14 Rocket 4.4 17:50:10 10° N 17:56:21 81° ENE 18:02:27 10° SSE
Resurs 01 Rocket 3.5 17:57:11 13° NE 17:57:11 13° NE 17:58:39 10° NNE
FENGYUN 3A 3.6 17:53:34 10° SSE 17:58:51 64° ENE 18:04:11 10° NNW
Cosmos 1346 Rocket 3.7 17:56:07 10° N 17:59:30 26° ENE 18:02:50 10° ESE
Cosmos 2221 2.5 17:55:27 10° N 17:59:50 83° ENE 18:04:14 10° SSE
Cosmos 1315 Rocket 4.2 17:57:11 10° SE 17:59:48 19° E 17:59:48 19° E
SS 1 4.4 17:58:26 10° NW 18:01:29 81° NE 18:04:05 13° SE
Cosmos 2366 rocket 4.1 17:57:09 10° N 18:03:21 56° ENE 18:09:26 10° SSE
SL-24 R/B - RUBIN 2 3.6 17:58:42 10° NW 18:03:32 81° NE 18:07:57 10° SE
ATLAS 5 CENTAUR R/B 2.8 17:59:18 10° W 18:04:01 41° NNW 18:07:58 17° NE
Lacrosse 4 Rocket 2.1 18:00:10 10° WSW 18:04:08 46° NW 18:07:26 14° NNE
SL-16 R/B 2.7 17:59:00 10° SW 18:04:38 58° NW 18:10:17 10° NNE
ERS-2 2.4 18:01:54 10° SE 18:05:25 44° ENE 18:08:59 10° N
Cosmos 1908 4.4 18:03:49 10° NNW 18:07:35 46° W 18:11:18 10° SSW
GENESIS II 4.3 18:04:36 10° SW 18:08:34 75° NW 18:11:07 21° NE
USA 161 3.4 18:07:11 10° N 18:09:15 23° WNW 18:11:10 10° WSW
MOS 1 4.2 18:04:34 10° SSE 18:10:13 82° ENE 18:15:54 10° NNW
Meteor 1-28 Rocket 3.2 18:07:24 10° NNE 18:11:15 84° WNW 18:15:04 10° SSW
COSMO-SKYMED 1 2.9 18:07:41 10° NNE 18:11:51 44° E 18:16:01 10° S
Cosmos 2228 Rocket 4.0 18:08:21 10° N 18:12:19 28° ENE 18:14:39 18° ESE
MONITOR-E 4.0 18:09:55 10° SSE 18:12:58 79° ENE 18:16:03 10° NNW
Nadezhda 1 Rocket 4.3 18:06:48 10° SSW 18:13:02 70° WNW 18:19:25 10° N
Cosmos 1867 3.6 18:08:11 10° SW 18:13:39 89° NW 18:17:40 19° NE
ERBS 2.4 18:10:56 10° WNW 18:14:20 63° N 18:15:39 33° ENE
NOSS 7 (E) 4.5 18:12:46 10° SW 18:16:01 57° SE 18:17:14 33° ENE
Cosmos 1603 3.7 18:12:13 10° SSW 18:17:59 82° ESE 18:22:54 15° NE
Cosmos 2341 Rocket 4.3 18:12:22 10° NNW 18:18:36 70° W 18:24:50 10° S
Cosmos 1943 3.3 18:13:28 10° S 18:18:55 53° ESE 18:22:45 20° NE
PKM 4.2 18:20:35 10° W 18:23:19 44° SSW 18:25:18 17° SE
Envisat 3.8 18:22:36 25° E 18:24:04 30° ENE 18:28:26 10° N
KORONAS-FOTON 3.8 18:22:37 10° SSW 18:26:26 84° WNW 18:30:15 10° N
Cosmos 1697 Rocket 3.9 18:23:11 10° NNW 18:27:35 23° NNE 18:28:46 21° NE
Cosmos 2237 Rocket 3.8 18:23:10 10° W 18:28:02 28° NNW 18:32:47 11° NNE
H-2A R/B 2.8 18:24:40 10° SSE 18:28:24 54° ENE 18:32:11 10° N
Cosmos 1328 4.3 18:27:44 10° SSE 18:31:28 38° E 18:31:44 37° E
CZ-2C R/B 3.7 18:26:48 10° NNE 18:31:37 87° ESE 18:36:19 10° SSW
Cosmos 1400 Rocket 2.7 18:27:40 10° S 18:31:43 68° E 18:34:39 19° NNE
Cosmos 1726 3.5 18:29:38 10° NNW 18:33:07 40° W 18:36:34 10° SSW
USA 116 3.9 18:31:52 10° NNE 18:35:42 77° WNW 18:40:07 10° SSW
MTI 3.6 18:38:27 59° ENE 18:38:49 67° ESE 18:42:01 10° S
Cosmos 1461 3.9 18:34:47 10° WSW 18:39:03 45° NNW 18:41:25 24° NNE
Cosmos 864 Rocket 4.5 18:34:18 10° N 18:40:42 88° E 18:47:03 10° S
Cosmos 1455 3.4 18:37:31 10° N 18:39:39 27° NNE 18:39:39 27° NNE
Cosmos 1076 Rocket 3.4 18:37:10 10° S 18:41:31 75° E 18:45:07 15° NNE
Cosmos 1328 Rocket 3.5 18:37:25 10° N 18:41:47 56° ENE 18:46:05 10° SSE
SKYMED 3 4.4 18:38:02 13° NNE 18:41:58 81° ESE 18:46:19 10° SSW
USA 215 3.3 18:40:18 29° E 18:43:58 76° N 18:50:31 10° W
OPS 0252 4.5 18:40:48 10° SW 18:44:05 87° NW 18:44:16 78° NE
NOSS 7 (H) 4.3 18:41:43 10° SW 18:44:59 66° SE 18:45:12 64° ESE
Cosmos 1656 4.5 18:40:32 10° NNW 18:45:18 29° NE 18:45:47 29° NE
EO 1 Del DPAF 3.2 18:46:13 52° ENE 18:46:47 59° ESE 18:50:34 10° S
Cosmos 2322 Rocket 4.0 18:44:02 10° NNW 18:47:40 17° N 18:48:59 16° NNE
Cosmos 1937 Rocket 4.5 18:45:39 10° NNW 18:49:50 28° NE 18:49:50 28° NE
SPOT 3 Rocket 4.0 18:46:12 10° S 18:51:18 64° WSW 18:56:28 10° NNW
Cosmos 2369 Rocket 4.4 18:46:55 10° NW 18:51:31 26° WSW 18:56:08 10° SSW
Cosmos 2181 Rocket 4.2 18:45:32 10° SSW 18:51:59 79° WNW 18:58:27 10° N
Cosmos 1934 Rocket 4.4 18:48:11 10° N 18:54:07 40° ENE 18:55:28 36° E
Okean 3 Rocket 3.7 18:51:47 10° SSW 18:56:20 80° WNW 19:00:29 12° N
Cosmos 1766 Rocket 3.4 18:54:50 10° S 18:59:07 67° E 18:59:52 55° NE
SKYMED 2 3.8 18:56:17 14° N 19:00:01 72° WNW 19:04:21 10° SSW
Landsat 4 3.7 18:59:57 39° N 19:01:14 77° WNW 19:04:57 10° SSW
SJ-6B 3.5 19:04:04 40° N 19:04:04 40° N 19:06:38 10° N
TIMED 4.3 18:59:25 10° NNW 19:03:50 77° ENE 19:04:33 60° SE
CZ-4 R/B 4.3 19:00:56 10° SW 19:04:02 19° W 19:07:09 10° NW
NOSS 2-1 (C) 3.3 19:00:31 10° SW 19:04:21 88° SE 19:04:53 68° NE
NOSS 2-1 (D) 3.3 19:01:10 10° SW 19:05:00 90° S 19:05:32 68° NE
Cosmos 1777 Rocket 4.3 19:00:32 10° NNW 19:05:44 65° WSW 19:10:55 10° SSE
Cosmos 2219 Rocket 4.2 19:02:00 10° WNW 19:05:51 18° NNW 19:08:37 13° NNE
SL-16 R/B 3.9 19:03:28 10° NNW 19:07:19 18° NNE 19:07:46 18° NNE
Cosmos 2239 Rocket 4.4 19:01:20 10° N 19:07:25 58° ENE 19:11:07 24° SE
Cosmos 1656 Rocket 4.3 19:03:50 10° NW 19:09:09 53° WSW 19:14:29 10° S
Cosmos 1943 Rocket 4.3 19:06:40 10° NW 19:11:17 27° WSW 19:15:51 10° SSW
Meteor 1-27 4.3 19:08:04 10° NNW 19:13:45 81° WSW 19:19:30 10° S
SL-14 R/B 4.0 19:13:32 10° SSW 19:17:27 54° WNW 19:19:06 30° NNW
Cosmos 2344 4.4 19:09:26 10° WNW 19:17:50 54° N 19:22:30 34° ENE
Spot 2 Rocket 4.2 19:19:33 37° NNE 19:19:33 37° NNE 19:22:55 10° N
RESURS DK-1 3.9 19:14:48 10° NNW 19:16:56 25° N 19:16:56 25° N
Cosmos 2360 Rocket 4.1 19:17:16 10° NNW 19:20:48 16° N 19:21:34 16° NNE
Cosmos 2098 Rocket 3.6 19:17:17 10° NNW 19:21:47 73° W 19:27:30 10° S
Cosmos 2333 Rocket 4.2 19:19:48 10° WNW 19:23:44 18° NNW 19:25:59 15° NNE
Cosmos 1626 4.2 19:20:40 10° S 19:21:48 19° SSW 19:21:48 19° SSW
Meteor 1-11 4.0 19:19:11 10° S 19:24:45 74° E 19:26:41 42° NNE
Cosmos 1980 Rocket 3.4 19:19:54 10° NNW 19:23:59 27° NNE 19:23:59 27° NNE
Cosmos 1151 Rocket 3.3 19:22:20 10° NNW 19:25:59 60° NNW 19:25:59 60° NNW
Resurs 01 Rocket 3.3 19:34:45 24° N 19:34:45 24° N 19:36:34 10° N
NOSS 2-1 (E) 3.8 19:29:23 10° WSW 19:33:00 66° WNW 19:33:00 66° WNW
Cosmos 1898 Rocket 3.8 19:28:31 10° NNW 19:32:58 54° NNE 19:32:58 54° NNE
Cosmos 2278 4.0 19:29:40 10° NNW 19:34:35 49° NNE 19:34:35 49° NNE
Cosmos 1346 Rocket 4.1 19:32:19 10° NNW 19:36:02 39° W 19:38:42 17° SSW
Cosmos 1315 Rocket 3.7 19:32:21 10° SSW 19:35:34 47° WSW 19:35:34 47° WSW
Cosmos 909 Rocket 4.4 19:29:15 10° NW 19:36:30 66° SW 19:39:45 30° SSE
Lacrosse 4 Rocket 3.6 19:41:01 10° WNW 19:43:46 17° NNW 19:43:46 17° NNW
Cosmos 1515 Rocket 4.1 19:39:51 10° NNW 19:43:53 55° W 19:43:53 55° W
COSMO-SKYMED 1 4.4 19:44:52 14° N 19:47:54 30° WNW 19:51:40 10° WSW
Cosmos 2369 4.0 19:42:40 10° NNW 19:47:29 56° N 19:47:29 56° N
ATLAS 5 CENTAUR R/B 3.1 19:44:58 10° WNW 19:49:31 36° N 19:49:31 36° N
SL-16 R/B 4.1 19:45:33 10° WNW 19:49:59 22° NNW 19:52:14 18° N
Cosmos 2228 Rocket 4.0 19:46:22 10° NNW 19:50:45 48° W 19:52:20 33° SW
NOSS 3-3 (A) 4.2 19:48:32 10° WSW 19:54:54 71° NNW 19:56:13 57° NNE
NOSS 3-3 (C) 4.2 19:48:39 10° WSW 19:55:00 71° NNW 19:56:19 57° NNE
Cosmos 1821 Rocket 4.1 19:49:45 10° NNW 19:55:52 73° W 19:59:49 23° S
Cosmos 1535 Rocket 4.4 19:49:39 10° NNW 19:55:54 83° W 19:57:18 56° S
Envisat 3.4 20:02:48 58° WSW 20:02:51 58° W 20:07:53 10° NNW
Cosmos 1943 4.2 19:57:50 10° WSW 20:03:11 42° NW 20:04:35 35° N
Cosmos 1697 Rocket 3.7 20:07:06 10° NNW 20:10:32 36° NNW 20:10:32 36° NNW
Nadezhda 3 Rocket 4.2 20:06:37 10° SSW 20:12:56 70° WNW 20:19:21 10° N
Cosmos 2237 Rocket 4.3 20:10:33 10° NW 20:14:04 16° N 20:14:37 16° N
USA 215 3.3 20:27:39 75° W 20:27:39 75° W 20:33:36 10° WNW
Cosmos 2322 Rocket 4.1 20:28:34 10° NNW 20:30:48 21° N 20:30:48 21° N
Cosmos 2219 Rocket 4.5 20:48:23 10° NNW 20:50:20 15° N 20:50:20 15° N
SL-16 R/B 4.3 20:47:49 10° NNW 20:49:38 19° NNW 20:49:38 19° NNW
Cosmos 1980 Rocket 4.2 21:03:51 10° NNW 21:05:46 22° NNW 21:05:46 22° NNW
Cosmos 2344 4.3 21:24:19 10° NW 21:32:32 74° NNW 21:32:32 74° NNW
